Weather in Katra

India     33°01′34″N   74°56′03″E
temp.,
°C
wind,
m/s
gust,
m/s
humid.,
%
clouds,
%
prec.,
mm/h
press.,
hPa
HPBL,
m
11 may, tue
tue1123:30+20ne445541 0.1 100763
02:30+19ne456099 0.1 100781
05:30+18ne4571100 1.6 100779
08:30+22ne4457100 0.1 1008208
11:30+29wsw1131100 0.2 10071552
14:30+29wsw3332100 0.0 10051818
17:30+24nne565332 0.3 1005362
20:30+19ne795678 0.0 1005176
12 may, wed
wed1223:30+18ne56585 0.0 1005105
02:30+17ne4559100 0.1 100474
05:30+17ne5567100 1.5 100572
08:30+22ne4451100 1.3 1005215
11:30+26w4439100 1.3 10061345
14:30+28nw3431100 0.0 10032139
17:30+27nne2233100 0.0 10011093
20:30+20ne3355100 0.1 100350
13 may, thu
thu1323:30+19ne4454100 0.2 100355
02:30+16ne446498 0.3 100358
05:30+17ne4463100 1.3 100359
08:30+17ne3474100 4.3 1007166
11:30+21ne4556100 6.9 1007565
14:30+25sse124094 0.0 10051365
17:30+26wnw22374 0.0 10021584
20:30+20ne22567 0.0 100316
14 may, fri
fri1423:30+17ne446220 0.0 100465
02:30+16ne44620 0.0 100459
05:30+15ne44600 0.0 100656
08:30+23ene233882 0.0 1006409
11:30+26sw323545 0.0 10061402
14:30+27ssw333492 0.0 10042016
17:30+27sw11331 0.0 10031647
20:30+22nne2246100 0.0 100411
15 may, sat
sat1523:30+20ne4454100 0.0 100550
02:30+19ne4453100 0.0 100663
05:30+18ne4455100 0.1 100766
08:30+22ne454792 0.0 1007167
11:30+30wsw3226100 0.0 10052154
14:30+31wsw322380 0.0 10042577
17:30+28nne43312 0.0 1003875
20:30+21nne445069 0.0 100564